Miscellaneous Local Product
Issued by NWS North Platte, NE

Home | Current Version | Previous Version | Graphics & Text | Print | Product List | Glossary On
Versions: 1 2 3 4 5 6 7 8 9 10 11 12 13 14 15 16 17 18 19 20 21 22 23 24 25 26 27 28 29 30 31 32 33 34 35 36 37 38 39 40 41 42 43 44 45 46 47 48 49 50
000
AXUS43 KLBF 200310
MISLBF


WESTERN AND NORTH CENTRAL NEBRASKA HOURLY WEATHER ROUNDUP
NATIONAL WEATHER SERVICE NORTH PLATTE NE
900 PM CST FRI DEC 19 2014

***STATIONS NOT REPORTING VARIABLES SUCH AS SKY/WEATHER OR
PRESSURE ARE PROVIDED BY THE NEBRASKA DEPARTMENT OF
ROADS...RAWS...AND APRS NETWORKS...AND ARE NOT UNDER
NATIONAL WEATHER SERVICE QUALITY CONTROL***

...OBSERVATIONS IN AND NEAR THE EASTERN PANHANDLE OF NEBRASKA...

CITY           SKY/WX    TMP DP  RH WIND       PRES   REMARKS
PINE RIDGE     CLEAR     21  16  81 NW3       29.96F
CHADRON        CLEAR     21  16  81 S5        29.97S WCI  15
ALLIANCE       PTCLDY    19  16  88 W7        29.98F WCI  10
SIDNEY         PTCLDY    25  18  74 W9        30.02S WCI  15
WHITECLAY        N/A     19  14  82 SE6         N/A  WCI  11
CRESCENT LAKE    N/A     28  21  75 W6          N/A  WCI  22
LISCO            N/A     24  19  80 CALM        N/A
BIG SPRINGS      N/A     25  23  90 W6          N/A  WCI  18
$$

...OBSERVATIONS IN NORTH CENTRAL NEBRASKA...

CITY           SKY/WX    TMP DP  RH WIND       PRES   REMARKS
VALENTINE      CLEAR     22  19  89 W5        29.99R WCI  16
THEDFORD       CLEAR     26  24  91 W9        29.99S WCI  16
AINSWORTH      CLEAR     18  17  95 SW8       29.98S WCI   8
O`NEILL        FOG       27  27 100 S6        30.02S VSB 1/2 WCI  21
BROKEN BOW     FOG       22  20  92 CALM      30.00S VSB 1/4
BROWNLEE         N/A     26  20  77 NW8         N/A  WCI  18
SPRINGVIEW       N/A     19  17  90 CALM        N/A
BREWSTER         N/A     22  22  99 CALM        N/A
ROSE             N/A     24  24 100 MISG        N/A
SARGENT          N/A     23  22  96 CALM        N/A
COMSTOCK         N/A     28  28 100 CALM        N/A
CHAMBERS         N/A     27  27  98 CALM        N/A
EWING            N/A     29  28  97 CALM        N/A
$$

...OBSERVATIONS IN SOUTHWEST NEBRASKA AND FAR NORTHEAST COLORADO...

CITY           SKY/WX    TMP DP  RH WIND       PRES   REMARKS
WRAY           FAIR      30  25  81 W8        30.04S WCI  22
HOLYOKE        FAIR      28  21  74 W8        30.03S WCI  20
IMPERIAL       CLEAR     31  24  75 W10       30.03S WCI  22
OGALLALA       CLEAR     22  21  96 W7        30.02S FOG     WCI  14
NORTH PLATTE   CLEAR     23  20  88 NW3       30.02R
MCCOOK         CLEAR     33  24  69 VRB5      30.03S WCI  29
LEXINGTON      CLEAR     23  22  96 N3        30.02F FOG
PAXTON           N/A     26  23  89 CALM        N/A
BRADY            N/A     27  24  86 CALM        N/A
GOTHENBURG       N/A     31  25  78 CALM        N/A
CALLAWAY         N/A     30  27  90 W12         N/A  WCI  20
$$

...NORTH PLATTE AREA...

CITY           SKY/WX    TMP DP  RH WIND       PRES   REMARKS
AIRPORT        CLEAR     23  20  88 NW3       30.02R
DOWNTOWN         N/A     29  25  85 CALM        N/A
$$

...SOME WEATHER OBSERVATIONS FROM AROUND THE REGION...

CITY           SKY/WX    TMP DP  RH WIND       PRES   REMARKS
DENVER         MOCLDY    31  15  52 SW5       30.01S WCI  26
LARAMIE        PTCLDY    26  14  60 SW18      30.01F WCI  13
CHEYENNE       PTCLDY    30  14  51 MISG      29.99F
SCOTTSBLUFF    PTCLDY    26  20  77 CALM      30.00S
RAPID CITY     CLEAR     23  20  88 CALM      29.92F
PIERRE         CLEAR     21  20  96 CALM      29.96F
WINNER         FAIR      28  22  78 S7        29.98S WCI  21
SIOUX FALLS    CLOUDY    31  28  89 S10       30.08S WCI  22
OMAHA          DRIZZLE   32  29  88 S9        30.16F FOG     WCI  24
GRAND ISLAND   FOG       33  32  96 S12       30.06S VSB 1/2 WCI  24
KANSAS CITY    DRIZZLE   32  31  96 SW3       30.20S FOG
WICHITA        CLOUDY    38  33  82 S8        30.18R WCI  32
HAYS           CLEAR     36  27  69 SW14      30.08F WCI  27
LIBERAL        CLEAR     32  27  80 S7        30.12F WCI  26
GOODLAND       CLEAR     29  23  78 SW9       30.05F WCI  20
$$



USA.gov is the U.S. government's official web portal to all federal, state and local government web resources and services.